Date,TemperatureHighF,TemperatureAvgF,TemperatureLowF,DewpointHighF,DewpointAvgF,DewpointLowF,HumidityHigh,HumidityAvg,HumidityLow,PressureMaxIn,PressureMinIn,WindSpeedMaxMPH,WindSpeedAvgMPH,GustSpeedMaxMPH,PrecipitationSumIn
2013-1-1,47.8,46.6,44.3,46.4,45.2,42.7,95,95,94,30.09,29.96,0,0,0,0.82
2013-1-2,36.8,36.1,35.3,34.3,33.7,32.9,92,91,90,30.14,30.07,4,1,5,0.00
2013-1-3,37.5,35.2,30.3,31.9,30.3,26.6,91,83,74,30.31,30.20,5,3,7,0.00
2013-1-4,41.2,36.9,29.5,25.6,23.2,20.9,79,58,44,30.45,30.36,8,3,10,0.00
2013-1-5,49.7,44.5,31.8,29.6,26.2,22.0,80,50,35,30.42,30.29,2,0,4,0.00
2013-1-6,43.2,39.7,35.9,37.4,34.9,32.8,94,83,72,30.24,30.16,5,1,5,0.04
2013-1-7,55.1,43.8,25.6,33.8,28.8,23.1,91,59,36,30.42,30.31,4,1,6,0.00
2013-1-8,58.7,49.6,33.2,47.4,41.2,29.8,88,73,64,30.42,30.30,10,0,10,0.00
2013-1-9,55.5,54.1,52.1,54.4,52.7,50.7,96,95,94,30.42,30.36,0,0,0,0.03
2013-1-10,63.6,61.0,53.8,53.6,53.2,52.7,96,76,68,30.40,30.27,5,2,9,0.00
2013-1-11,63.1,62.0,61.1,59.5,59.3,59.1,94,91,87,30.13,30.11,3,2,6,0.13
2013-1-12,69.9,66.1,61.4,63.0,60.5,57.4,96,82,74,30.10,30.00,3,1,7,0.04
2013-1-13,65.6,63.4,59.8,60.1,59.0,57.7,95,86,79,30.04,29.95,2,1,13,0.04
2013-1-14,47.2,45.0,42.6,45.6,43.5,41.0,95,94,94,30.17,30.03,3,1,5,1.72
2013-1-15,57.0,48.5,45.0,56.2,47.3,43.7,97,96,95,30.11,29.98,1,0,9,1.79
2013-1-16,54.7,53.1,50.3,53.6,51.9,48.9,96,96,95,29.97,29.92,3,0,3,0.71
2013-1-17,42.9,37.6,32.5,41.6,35.8,29.3,95,93,88,30.29,29.66,12,5,16,0.93
2013-1-18,48.7,37.0,30.2,32.3,28.1,25.9,88,72,45,30.53,30.30,8,2,10,0.00
2013-1-19,49.2,43.0,29.7,33.5,30.5,27.6,93,63,46,30.47,30.27,3,1,6,0.01
2013-1-24,37.9,30.2,23.9,17.4,10.8,6.5,62,45,30,30.37,30.29,7,2,10,0.00
2013-1-25,36.5,32.3,23.8,34.7,28.4,9.4,93,86,48,30.37,30.15,6,0,6,0.31
2013-1-26,48.3,41.3,28.8,34.5,30.4,25.7,93,66,48,30.33,30.19,9,1,9,0.01
2013-1-27,49.8,43.0,30.6,34.9,32.9,25.7,92,69,54,30.47,30.33,11,2,11,0.00
2013-1-28,52.5,48.3,43.0,49.0,45.1,35.3,94,89,73,30.39,30.27,4,0,10,0.00
2013-1-29,48.1,43.2,40.8,46.5,41.7,39.2,95,94,93,30.28,30.21,2,0,2,0.00
2013-2-1,29.6,24.2,19.4,14.2,11.6,9.1,78,59,43,30.41,30.37,4,0,12,0.00
2013-2-2,33.5,25.4,16.9,31.7,21.1,12.9,93,84,50,30.41,30.17,2,0,4,0.00
2013-2-3,46.4,36.1,29.7,35.4,29.4,24.6,93,78,52,30.18,30.03,7,1,9,0.25
2013-2-4,47.8,35.3,24.0,31.4,26.2,21.0,90,71,47,30.17,30.02,2,0,4,0.00
2013-2-5,59.6,45.3,38.0,44.5,37.4,27.8,93,75,51,30.05,29.95,2,0,4,0.01
2013-2-6,60.6,43.5,30.1,42.8,32.3,28.1,94,69,33,30.21,30.05,4,0,5,0.00
2013-2-7,48.7,42.6,34.5,44.9,38.5,28.5,94,86,71,30.17,29.95,2,0,4,0.20
2013-2-8,49.2,43.9,35.1,45.7,40.3,29.1,95,87,67,30.22,29.92,8,2,10,0.08
2013-2-9,61.3,41.6,29.3,34.9,29.0,22.6,86,65,24,30.33,30.17,7,1,9,0.00
2013-2-10,53.5,48.1,39.4,44.2,32.9,25.8,94,58,35,30.29,30.09,12,3,15,0.84
2013-2-11,53.8,49.1,39.6,52.5,45.9,37.7,96,89,69,30.11,30.03,2,0,3,0.17
2013-2-12,50.1,43.2,35.5,40.2,34.0,28.9,94,72,45,30.13,29.93,4,0,6,0.10
2013-2-13,46.1,43.3,37.6,44.2,40.5,33.2,95,90,83,29.90,29.72,6,1,10,0.09
2013-2-14,52.7,45.9,36.5,34.3,32.1,29.7,78,60,42,30.09,30.02,5,2,6,0.00
2013-2-15,56.2,46.2,36.2,40.7,36.4,30.9,87,70,45,30.12,30.01,9,2,12,0.01
2013-2-16,36.1,30.5,25.3,31.1,21.4,11.8,88,70,46,30.16,29.98,11,3,17,0.00
2013-2-17,38.4,27.9,17.1,17.5,13.4,9.5,78,56,38,30.31,30.15,9,2,14,0.00
2013-2-18,56.2,36.8,21.4,32.3,23.5,16.0,86,62,39,30.39,30.16,6,1,10,0.00
2013-2-19,51.2,42.6,35.7,33.7,20.5,15.6,52,41,35,30.17,29.99,8,3,10,0.40
2013-2-20,42.2,34.3,27.1,18.0,15.2,11.4,64,46,29,30.22,30.16,6,2,10,0.00
2013-2-21,64.8,41.6,24.2,41.6,25.4,15.5,93,58,21,30.23,29.97,5,0,5,0.59
2013-2-22,48.1,44.6,40.9,43.6,41.4,38.3,93,89,83,30.15,30.01,7,2,14,0.65
2013-2-23,54.6,48.5,44.4,51.8,46.7,42.5,95,93,88,30.02,29.83,2,0,5,0.50
2013-2-24,57.2,50.7,39.8,33.8,31.4,29.3,75,48,38,30.04,29.99,6,2,9,0.00
2013-2-25,52.6,47.3,35.3,39.3,34.5,30.9,89,62,49,30.04,29.88,6,2,14,0.00
2013-2-26,53.0,45.6,38.4,46.8,40.4,34.0,90,82,73,29.74,29.50,7,2,12,0.69
2013-2-27,46.1,39.1,36.8,38.5,33.3,30.4,89,80,70,29.87,29.73,6,1,8,0.03
2013-2-28,39.1,34.8,32.5,31.6,27.0,24.5,83,73,67,30.01,29.83,7,2,11,0.00
2013-3-1,35.7,33.0,31.7,29.9,27.8,24.7,90,81,73,30.01,29.96,5,1,10,0.00
2013-3-2,32.8,31.0,27.9,29.2,26.8,23.1,91,85,75,30.07,29.94,8,2,10,0.03
2013-3-3,32.8,27.6,22.7,23.5,19.7,16.8,90,72,57,30.13,30.03,9,3,13,0.03
2013-3-4,54.8,35.3,19.7,32.7,22.7,16.2,89,64,38,30.23,30.04,3,0,5,0.01
2013-3-5,53.0,49.7,41.7,50.7,46.4,35.1,94,89,76,29.94,29.61,10,1,15,0.79
2013-3-6,32.2,31.1,28.9,26.8,25.3,23.6,85,79,75,30.23,30.03,12,7,20,0.00
2013-3-7,47.1,40.2,31.3,32.2,29.5,25.5,80,66,54,30.32,30.24,7,4,11,0.00
2013-3-8,55.6,47.6,27.8,30.8,22.6,14.6,88,42,21,30.37,30.27,9,4,14,0.00
2013-3-9,60.6,56.7,50.0,34.7,32.9,30.4,50,41,35,30.31,30.22,3,1,7,0.00
2013-3-10,64.1,60.1,53.9,38.8,35.9,33.9,47,40,35,30.18,30.03,10,6,15,0.00
2013-3-11,60.6,56.0,51.7,52.5,50.6,49.6,94,83,69,29.91,29.72,8,2,17,0.75
2013-3-12,51.2,44.7,34.9,36.0,32.8,29.9,86,64,50,30.05,29.96,9,5,12,0.05
2013-3-13,45.7,42.2,37.5,31.3,25.4,21.3,72,52,43,30.25,30.16,10,6,13,0.00
2013-3-14,46.9,43.1,34.3,19.7,17.8,14.3,48,36,30,30.38,30.28,7,3,10,0.00
2013-3-15,70.6,61.6,35.5,45.9,40.9,31.1,84,48,40,30.21,29.98,4,2,10,0.00
2013-3-16,74.0,67.4,54.8,51.8,47.8,43.8,67,50,43,29.92,29.81,4,2,12,0.00
2013-3-17,68.8,64.4,56.7,53.6,50.7,48.1,76,61,54,29.94,29.85,4,2,9,0.00
2013-3-18,58.6,53.4,50.9,52.7,49.5,48.0,94,87,75,29.89,29.77,7,2,10,0.74
2013-3-19,56.1,51.3,41.6,34.5,30.0,22.8,69,45,29,30.07,30.03,11,7,13,0.01
2013-3-20,53.3,46.9,34.8,22.4,18.9,12.8,52,33,25,30.14,29.90,10,2,16,0.00
2013-3-21,39.2,33.1,24.8,17.6,12.6,7.2,65,43,35,30.01,29.93,9,4,12,0.00
2013-3-22,46.5,36.8,26.3,32.1,23.5,14.9,74,59,43,30.09,30.00,1,0,3,0.00
2013-3-23,51.8,44.8,38.9,47.8,40.9,30.3,94,86,63,30.04,29.75,5,0,11,0.22
2013-3-24,57.3,48.7,39.0,51.5,45.4,31.4,95,88,72,29.84,29.43,6,1,10,1.36
2013-3-25,38.9,32.8,29.8,31.5,24.6,22.3,78,72,65,30.07,29.63,6,2,11,0.00
2013-3-26,36.8,31.6,28.7,29.3,24.8,22.9,85,76,64,30.31,30.05,10,3,13,0.00
2013-3-27,47.3,36.2,26.3,26.9,24.4,22.5,87,64,39,30.37,30.27,8,3,12,0.00
2013-3-28,53.4,39.7,24.7,32.0,26.3,20.9,87,61,38,30.37,30.27,9,2,11,0.00
2013-3-29,57.1,41.1,27.9,38.2,30.3,24.3,90,68,39,30.36,30.23,4,0,7,0.00
2013-3-30,67.2,52.4,42.3,52.1,43.0,36.7,94,73,40,30.23,29.99,4,0,6,0.34
2013-3-31,60.7,55.5,52.2,56.1,52.9,50.5,95,91,77,29.99,29.84,2,0,7,0.65
2013-4-1,63.3,53.5,40.4,53.1,44.5,36.4,95,74,49,30.03,29.85,6,2,10,0.01
2013-4-2,57.1,46.7,35.9,37.3,28.6,22.9,80,51,30,30.18,30.03,7,2,10,0.00
2013-4-3,60.4,48.9,39.7,35.5,29.0,22.9,59,47,35,30.20,30.11,5,1,7,0.00
2013-4-4,51.2,41.4,38.5,40.9,38.0,31.5,94,88,47,30.16,29.96,6,0,10,0.75
2013-4-5,58.8,47.3,40.3,42.8,39.4,33.7,94,76,41,30.10,29.96,11,3,15,0.00
2013-4-6,71.0,52.4,31.5,43.2,37.2,29.4,93,62,32,30.21,30.09,5,1,7,0.00
2013-4-7,71.4,57.5,42.7,50.3,43.5,36.0,81,61,44,30.16,30.04,5,1,10,0.00
2013-4-8,73.8,61.2,48.7,55.0,50.1,43.5,88,68,49,30.10,30.02,4,1,9,0.00
2013-4-9,79.4,65.0,49.0,59.8,53.5,46.5,92,69,46,30.16,30.02,5,1,12,0.00
2013-4-10,83.8,68.1,52.2,61.3,55.3,49.3,93,67,44,30.08,29.86,4,1,13,0.00
2013-4-11,78.7,68.3,60.2,64.1,58.7,54.1,95,73,53,29.88,29.59,21,2,24,1.25
2013-4-12,63.4,57.2,44.9,59.4,48.2,38.2,95,74,44,29.92,29.57,7,2,13,0.46
2013-4-13,70.0,54.0,38.8,43.4,38.2,34.5,91,60,32,30.06,29.92,8,2,11,0.00
2013-4-14,65.2,51.4,39.0,50.8,42.9,35.7,91,74,42,30.05,29.91,7,1,12,0.01
2013-4-15,78.7,63.9,54.2,59.7,54.9,50.3,92,74,48,30.10,29.91,3,1,10,0.00
2013-4-16,80.2,67.2,55.9,64.3,59.3,52.8,92,77,57,30.20,30.09,4,1,7,0.00
2013-4-17,84.4,66.8,57.0,66.1,60.3,55.0,95,81,50,30.17,30.02,10,1,11,0.81
2013-4-18,77.4,67.5,57.6,61.8,58.4,55.4,96,75,52,30.02,29.82,8,2,11,0.00
2013-4-19,70.4,58.1,42.8,62.6,51.6,32.6,94,79,65,30.01,29.67,9,3,17,0.79
2013-4-20,55.5,43.0,31.9,34.4,31.5,28.5,88,65,42,30.27,30.01,8,2,11,0.00
2013-4-21,68.3,50.2,32.0,40.6,35.5,29.4,92,61,33,30.37,30.22,4,1,7,0.00
2013-4-22,70.4,54.2,36.7,46.4,40.3,33.8,91,63,33,30.33,30.11,3,0,6,0.00
2013-4-23,74.7,58.2,38.6,50.5,42.8,35.1,89,59,38,30.20,30.03,3,0,6,0.00
2013-4-24,69.4,57.5,46.4,59.0,52.3,44.5,93,83,66,30.15,30.01,6,1,11,0.27
2013-4-25,64.3,50.0,38.8,44.4,38.1,32.8,93,68,32,30.34,30.15,6,2,11,0.00
2013-4-26,74.5,52.8,33.2,49.7,39.2,30.9,92,66,31,30.40,30.25,3,0,7,0.17
2013-4-27,57.8,52.6,50.8,51.8,50.1,49.1,95,91,78,30.36,30.15,2,0,4,0.93
2013-4-28,55.1,54.4,52.4,53.7,53.0,51.0,95,95,95,30.09,29.94,4,0,5,3.01
2013-4-29,69.9,58.0,50.0,57.3,52.4,48.4,96,83,57,30.03,29.92,3,0,5,0.01
2013-4-30,77.5,60.2,43.1,61.0,52.1,41.1,95,77,53,30.08,29.95,2,0,5,0.00
2013-5-1,73.6,63.1,53.9,57.1,54.4,51.3,94,75,52,30.15,30.07,5,1,7,0.00
2013-5-2,64.5,57.5,51.2,57.2,52.0,48.7,93,82,71,30.15,30.09,3,0,9,0.00
2013-5-3,61.3,59.0,57.3,54.0,53.0,51.6,86,80,73,30.04,29.94,5,2,8,0.01
2013-5-4,53.5,51.6,49.0,51.2,49.6,46.5,95,93,89,29.90,29.82,3,0,5,1.57
2013-5-5,56.4,52.1,46.8,53.2,49.9,44.9,96,92,83,29.83,29.73,3,0,5,1.67
2013-5-6,51.5,47.2,42.8,48.5,45.2,41.2,95,93,85,29.90,29.77,2,0,4,0.07
2013-5-7,67.5,54.8,46.4,54.3,49.2,44.8,95,83,52,29.96,29.87,5,1,8,0.07
2013-5-8,73.2,59.3,49.2,59.0,53.6,47.5,96,83,55,30.04,29.92,4,0,6,0.00
2013-5-9,79.0,62.6,49.2,60.2,54.1,47.4,95,77,44,30.10,30.00,2,0,6,0.00
2013-5-10,72.4,62.6,51.7,61.7,56.3,49.7,94,81,59,30.07,29.92,2,0,4,0.00
2013-5-11,73.9,62.4,56.8,64.4,59.0,53.9,95,89,70,29.95,29.84,3,0,6,0.30
2013-5-12,63.1,54.2,44.2,53.4,43.3,35.5,93,70,42,30.11,29.93,5,2,9,0.00
2013-5-13,64.5,50.2,35.2,42.0,36.7,32.7,92,64,35,30.23,30.10,6,1,7,0.00
2013-5-14,76.2,55.1,36.2,56.2,44.1,33.5,92,70,47,30.25,30.09,2,0,6,0.00
2013-5-15,80.5,71.2,62.8,58.6,56.7,55.9,80,62,45,30.01,29.97,0,0,5,0.00
2013-5-16,81.9,65.6,54.2,64.5,58.1,51.6,93,78,53,30.05,29.94,1,0,4,0.00
2013-5-17,78.0,66.4,56.5,66.8,59.6,54.5,94,80,56,30.06,29.98,2,0,6,0.02
2013-5-18,70.4,65.1,62.0,67.2,62.9,60.3,96,93,87,30.03,29.98,1,0,5,0.34
2013-5-19,67.7,63.6,59.5,66.2,62.3,58.2,96,95,93,30.07,29.91,5,0,7,1.00
2013-5-20,82.4,65.7,55.7,72.2,62.1,54.6,97,89,66,30.10,29.97,1,0,3,0.00
2013-5-21,85.9,71.7,60.7,71.3,65.7,59.3,96,83,57,30.01,29.85,1,0,4,0.00
2013-5-22,81.6,76.3,67.9,70.0,64.7,62.2,84,68,57,29.84,29.80,2,0,3,0.80
2013-5-23,80.0,74.8,69.7,63.6,60.5,55.4,76,61,51,29.93,29.87,3,1,5,0.00
2013-5-24,66.6,61.0,49.2,51.2,47.2,42.3,87,62,42,30.21,30.11,7,3,11,0.00
2013-5-25,78.0,58.5,41.0,51.5,44.7,38.6,92,65,33,30.31,30.17,4,1,6,0.00
2013-5-26,79.0,58.7,45.6,58.7,49.4,43.1,93,74,46,30.26,30.16,3,0,5,0.00
2013-5-27,83.0,77.5,65.8,63.3,60.7,56.3,73,57,47,30.21,30.08,1,0,7,0.00
2013-5-28,83.6,79.0,71.7,65.4,62.2,60.1,71,57,46,30.15,30.06,2,0,4,0.00
2013-5-29,83.5,77.6,71.2,66.7,63.0,58.4,76,62,46,30.17,30.08,3,1,6,0.00
2013-5-30,79.8,76.1,71.9,65.4,64.0,63.0,77,66,58,30.19,30.08,4,2,6,0.00
2013-5-31,82.0,75.9,61.9,66.9,64.7,59.2,93,69,58,30.15,30.03,3,1,5,0.00
2013-6-1,81.9,76.4,69.6,69.2,67.7,66.2,89,75,63,30.04,29.93,1,0,6,0.00
2013-6-2,72.2,70.1,66.1,70.6,68.7,64.9,97,95,91,29.92,29.83,2,0,4,4.63
2013-6-3,78.8,74.5,68.2,68.4,65.4,63.1,95,74,62,29.92,29.84,5,2,9,0.00
2013-6-4,80.5,72.2,60.0,65.6,62.6,58.8,96,74,50,30.00,29.93,2,0,3,0.00
2013-6-5,80.0,72.0,63.9,71.3,66.6,62.4,95,84,70,30.00,29.88,6,1,10,0.99
2013-6-6,78.3,68.3,60.5,71.2,65.0,59.4,97,90,74,29.90,29.72,1,0,3,0.00
2013-6-7,81.6,73.1,64.4,69.5,66.5,62.3,94,81,59,29.75,29.67,5,1,7,0.18
2013-6-8,77.1,69.8,61.4,68.8,65.1,60.2,96,86,70,30.05,29.94,1,0,3,0.00
2013-6-9,81.5,68.7,60.1,73.2,65.4,58.7,96,90,67,30.07,29.94,1,0,3,0.25
2013-6-10,78.2,71.7,65.1,69.1,66.3,63.6,96,84,69,29.97,29.88,1,0,4,0.37
2013-6-11,83.8,78.2,69.1,74.2,71.2,68.2,97,80,65,30.00,29.93,3,1,5,0.25
2013-6-12,88.5,80.6,67.6,77.3,72.6,66.4,96,78,65,30.03,29.93,4,1,7,0.00
2013-6-13,88.0,82.1,71.3,77.0,73.4,69.3,95,76,64,29.87,29.66,4,1,7,0.34
2013-6-14,76.2,71.8,67.9,63.3,60.9,59.1,79,69,57,29.91,29.89,4,2,8,0.00
2013-6-15,83.2,77.3,66.1,68.0,64.1,61.4,85,64,53,30.10,30.01,1,0,4,0.00
2013-6-16,84.8,79.7,69.0,69.7,67.6,62.9,83,67,57,30.10,29.96,1,0,4,0.00
2013-6-17,80.7,74.6,69.6,72.8,70.1,65.9,96,86,74,30.00,29.90,1,0,3,0.03
2013-6-18,76.6,72.0,69.1,73.4,69.9,67.3,96,93,85,29.83,29.81,4,0,4,0.27
2013-6-19,81.2,75.6,69.5,69.2,67.0,65.1,86,75,61,30.00,29.96,1,0,3,0.00
2013-6-20,81.6,74.5,64.0,70.7,66.7,61.7,95,78,59,30.14,30.09,5,0,5,0.34
2013-6-21,80.3,73.7,67.8,68.5,67.0,65.2,96,80,61,30.22,30.14,2,0,3,0.01
2013-6-22,81.8,76.2,62.7,68.4,65.1,61.5,96,70,58,30.21,30.06,1,0,4,0.00
2013-6-23,79.8,76.0,68.9,74.3,70.6,66.2,95,84,73,30.13,30.06,2,0,3,0.61
2013-6-24,84.1,79.1,70.6,72.8,70.8,69.1,96,76,65,30.19,30.05,1,0,5,0.01
2013-6-25,79.1,74.6,71.3,73.3,71.1,68.7,95,89,79,30.11,29.99,1,0,1,0.12
2013-6-26,85.1,78.7,69.8,74.7,72.1,66.9,97,80,68,30.03,29.89,1,0,5,0.00
2013-6-27,83.4,78.7,72.7,75.4,73.1,70.1,95,83,73,29.86,29.75,2,0,6,0.04
2013-6-28,88.1,82.6,74.0,75.7,73.4,70.9,97,74,57,29.78,29.60,1,0,6,0.00
2013-6-29,82.9,78.2,69.4,70.3,64.9,61.1,96,65,52,29.66,29.62,3,1,7,0.00
2013-6-30,84.1,79.0,69.8,67.7,63.5,58.3,85,60,42,29.73,29.67,1,0,3,0.00
2013-7-1,79.3,72.4,63.4,69.2,66.9,61.9,95,83,70,29.84,29.78,2,0,4,0.01
2013-7-2,80.3,74.2,68.6,73.0,69.3,66.7,95,85,74,29.98,29.95,1,0,2,0.19
2013-7-3,69.0,67.5,65.9,67.4,66.2,64.4,96,96,93,30.12,30.08,2,0,4,0.93
2013-7-4,72.3,70.0,66.7,70.5,68.3,65.8,97,94,91,30.11,30.05,2,0,4,0.53
2013-7-5,74.9,71.8,68.2,69.7,68.2,67.0,96,88,79,30.16,30.10,2,0,3,0.07
2013-7-6,78.0,72.2,68.8,73.1,69.6,67.3,95,92,84,30.11,30.05,3,0,6,0.25
2013-7-7,76.0,71.2,69.7,70.8,69.9,68.8,97,96,84,30.12,30.07,0,0,2,0.12
2013-7-8,84.0,75.9,69.6,74.7,71.4,68.4,96,87,71,30.13,30.05,3,0,4,0.97
2013-7-9,83.6,74.4,68.6,76.5,71.0,67.4,97,90,71,30.13,30.02,1,0,3,0.37
2013-7-10,82.1,73.7,68.8,77.0,71.6,67.9,97,93,81,30.04,29.92,6,0,6,1.48
2013-7-11,80.1,74.9,69.4,74.5,71.8,68.5,97,90,80,29.93,29.83,1,0,1,0.06
2013-7-12,81.3,75.6,68.0,71.8,69.1,66.7,97,81,68,29.90,29.85,5,2,8,0.01
2013-7-13,77.0,73.3,67.1,69.9,67.8,65.9,96,83,77,30.02,29.97,2,0,6,0.00
2013-7-14,76.2,74.0,71.0,71.7,70.3,68.9,95,88,82,30.12,30.08,3,1,6,0.19
2013-7-15,80.7,77.3,68.8,71.9,70.0,67.2,95,78,69,30.25,30.17,3,1,5,0.00
2013-7-16,88.1,82.4,75.5,73.7,72.0,70.1,87,71,58,30.28,30.18,2,0,4,0.03
2013-7-17,89.5,81.6,69.5,76.4,73.3,68.3,97,77,59,30.25,30.09,4,0,6,0.01
2013-7-18,87.1,79.0,67.9,76.5,71.9,66.7,97,80,66,30.14,30.01,1,0,2,0.01
2013-7-19,84.4,76.5,69.9,75.6,73.3,68.7,97,90,72,30.08,29.94,1,0,2,0.31
2013-7-20,83.9,78.2,71.5,75.9,73.2,69.6,96,85,70,29.99,29.88,1,0,2,0.43
2013-7-21,83.8,75.8,70.9,75.9,71.9,68.3,95,88,72,29.98,29.89,3,0,3,0.31
2013-7-22,80.9,74.6,70.1,74.8,71.3,68.5,97,90,78,29.95,29.81,1,0,5,0.32
2013-7-23,81.0,75.2,68.7,74.2,71.5,67.8,97,88,79,29.91,29.79,1,0,4,0.10
2013-7-24,81.8,76.0,67.4,73.4,71.1,66.2,97,85,73,29.85,29.76,3,0,4,0.00
2013-7-25,85.4,75.8,63.1,70.5,66.7,61.6,96,75,47,29.92,29.87,5,1,7,0.00
2013-7-26,85.3,77.8,62.3,73.7,70.0,61.1,96,78,63,30.04,29.92,2,0,5,0.00
2013-7-27,80.5,70.8,66.2,71.8,68.5,65.0,97,93,74,29.93,29.88,1,0,2,0.00
2013-7-28,80.9,77.0,73.1,70.3,68.2,66.2,87,75,63,29.96,29.92,3,1,5,0.00
2013-7-29,79.6,72.3,59.7,65.4,61.2,57.2,95,70,48,30.11,30.08,2,1,4,0.01
2013-7-30,85.9,78.2,64.9,71.0,64.7,60.8,87,65,47,30.20,30.08,1,0,1,0.00
2013-7-31,72.7,70.1,67.2,70.9,68.7,66.0,96,95,91,30.09,29.93,0,0,0,0.82
2013-8-1,81.1,76.3,70.6,72.4,70.2,68.2,94,82,72,29.94,29.89,5,2,9,0.02
2013-8-2,85.8,77.5,64.3,71.6,68.1,63.1,96,75,49,30.00,29.95,1,0,3,0.00
2013-8-3,79.3,77.3,72.0,71.6,69.9,67.2,86,78,71,30.02,29.96,2,0,4,0.00
2013-8-4,81.4,77.6,70.1,72.4,69.4,66.6,96,76,64,30.01,29.94,5,2,9,0.00
2013-8-5,83.3,78.6,69.0,72.0,67.4,62.4,87,69,55,30.04,29.94,4,0,4,0.00
2013-8-7,79.9,74.3,69.6,75.0,72.0,68.7,97,93,82,30.00,29.92,0,0,1,1.34
2013-8-8,86.5,79.5,71.4,76.7,73.7,70.5,97,83,68,30.01,29.93,1,0,2,0.00
2013-8-9,83.3,78.6,73.4,77.5,74.6,72.4,97,88,79,30.03,29.96,1,0,3,0.27
2013-8-10,85.4,79.4,72.3,77.1,74.1,71.4,97,84,70,30.08,30.01,3,0,4,0.02
2013-8-11,78.5,75.8,69.7,75.8,73.3,68.5,97,92,84,30.11,30.02,2,0,3,0.44
2013-8-12,81.8,75.5,71.1,77.4,73.2,70.2,97,93,80,30.07,29.94,2,0,5,0.48
2013-8-13,82.5,75.8,71.3,73.6,71.6,69.8,97,87,71,29.94,29.83,2,0,4,0.16
2013-8-14,76.1,71.4,66.2,68.3,65.3,62.3,96,82,73,29.94,29.91,4,2,10,0.01
2013-8-15,75.2,71.3,64.8,65.2,63.1,61.0,94,76,66,30.03,29.98,2,1,5,0.06
2013-8-16,69.4,65.9,60.4,64.6,62.4,58.7,95,89,81,30.07,30.02,2,0,3,0.06
2013-8-17,68.5,65.3,63.9,63.9,62.6,60.7,96,91,82,30.11,30.05,0,0,0,0.35
2013-8-18,71.4,69.0,63.5,68.6,66.8,62.3,97,93,88,30.16,30.09,0,0,2,0.33
2013-8-19,79.7,72.4,65.3,73.1,69.6,64.3,97,91,80,30.11,30.01,1,0,2,0.82
2013-8-20,78.0,74.7,65.6,72.6,69.9,64.4,97,85,76,30.13,30.05,1,0,4,0.00
2013-8-21,72.6,70.9,69.3,71.7,69.6,68.0,97,96,94,30.18,30.08,2,0,3,0.89
2013-8-22,73.0,73.0,73.0,70.9,70.9,70.9,93,93,93,30.02,30.02,0,0,0,0.00
2013-8-23,82.8,76.9,67.3,74.1,70.5,66.4,97,82,67,30.06,29.94,6,0,6,0.00
2013-8-24,83.8,77.2,71.0,73.2,70.8,68.0,95,81,68,30.14,30.09,7,0,7,0.12
2013-8-25,80.4,74.4,65.8,67.9,64.4,61.7,88,71,58,30.32,30.21,1,0,3,0.00
2013-8-27,79.9,74.2,61.3,69.9,67.3,60.2,96,80,68,30.13,30.01,3,1,6,0.00
2013-8-28,83.6,77.9,64.5,73.1,70.9,63.3,97,80,68,30.03,29.95,4,1,7,0.00
2013-8-29,83.5,78.9,66.9,74.5,72.4,65.7,97,81,70,30.00,29.90,3,1,6,0.00
2013-9-4,82.9,75.5,66.8,71.0,68.3,64.7,93,79,63,30.08,29.99,2,0,3,0.00
2013-9-5,74.0,66.1,64.4,68.2,64.6,63.2,97,95,82,30.11,30.05,0,0,0,0.00
2013-9-6,83.7,77.0,64.3,71.2,68.2,63.1,96,75,63,30.13,30.03,2,0,4,0.00
2013-9-7,82.0,74.8,62.1,71.2,68.1,60.9,97,81,66,30.09,29.97,1,0,3,0.00
2013-9-8,82.7,77.0,67.4,70.9,68.9,66.2,97,77,62,29.99,29.92,4,1,6,0.00
2013-9-9,85.5,74.9,64.0,73.5,70.0,62.8,96,86,62,30.06,30.02,1,0,2,0.07
2013-9-10,85.8,79.0,67.6,73.8,70.2,66.4,96,75,59,30.19,30.10,1,0,2,0.00
2013-9-11,87.0,77.3,63.8,71.8,68.6,62.6,97,76,55,30.20,30.07,2,0,3,0.00
2013-9-12,83.1,76.1,66.5,73.3,70.6,65.3,96,83,69,30.04,29.87,1,0,3,0.00
2013-9-13,74.9,71.2,66.6,65.7,63.9,59.5,94,78,61,29.87,29.84,4,2,8,0.01
2013-9-14,63.6,63.6,63.6,60.0,60.0,60.0,88,88,88,30.02,30.02,0,0,0,0.00
2013-9-15,81.4,71.2,51.7,65.5,61.6,50.0,95,73,55,30.15,30.07,3,1,6,0.00
2013-9-16,81.5,74.0,60.8,67.1,63.4,59.0,96,71,50,30.14,30.06,2,0,4,0.00
2013-9-17,73.7,71.2,68.1,63.3,61.7,59.1,81,72,66,30.18,30.11,4,2,8,0.00
2013-9-19,79.6,70.6,53.9,67.2,63.4,52.2,95,79,63,30.17,30.04,1,0,2,0.00
2013-9-20,82.8,74.9,62.4,68.0,65.6,60.9,95,74,58,30.06,29.88,1,0,3,0.00
2013-9-21,66.6,64.1,62.2,65.4,62.8,60.8,96,96,95,29.75,29.69,5,0,5,1.90
2013-9-22,73.7,65.7,56.1,63.1,58.5,54.8,96,78,62,29.86,29.81,3,1,4,0.00
2013-9-23,74.4,68.3,53.5,62.8,59.6,52.1,96,75,64,30.00,29.95,3,0,6,0.00
2013-9-24,69.3,66.2,62.4,63.9,62.4,59.7,93,88,80,30.00,29.89,2,0,4,0.02
2013-9-25,64.9,63.5,61.9,62.9,61.7,60.7,96,94,90,29.85,29.80,1,0,3,1.67
2013-9-26,74.6,68.8,62.3,65.3,63.0,61.1,96,82,70,29.96,29.91,3,1,11,0.00
2013-9-27,75.9,68.1,56.2,62.8,59.7,54.9,96,76,60,30.12,30.03,2,0,4,0.00
2013-9-28,74.0,68.6,59.1,61.4,58.6,56.2,90,71,58,30.20,30.08,2,0,3,0.00
2013-9-29,70.0,64.3,52.9,60.2,56.9,51.5,95,77,62,30.13,30.01,2,0,4,0.00
2013-9-30,74.7,66.7,56.3,62.2,58.6,54.9,96,76,60,30.08,29.98,2,0,4,0.00
2013-10-1,74.6,68.4,57.6,64.9,62.5,56.2,95,82,68,30.16,30.05,0,0,3,0.01
2013-10-2,78.1,70.3,57.7,67.3,64.3,56.6,96,82,66,30.17,30.04,1,0,2,0.00
2013-10-3,80.1,73.9,64.1,66.6,64.0,61.8,94,72,57,30.12,30.03,2,0,4,0.00
2013-10-4,80.5,73.0,60.6,67.0,64.5,59.5,96,76,59,30.16,30.06,1,0,3,0.00
2013-10-5,84.1,76.3,65.5,72.0,65.9,63.1,92,71,57,30.11,29.99,2,0,4,0.00
2013-10-6,78.5,71.5,57.5,67.8,64.5,56.1,96,79,64,29.98,29.81,3,0,4,0.00
2013-10-7,65.3,59.1,52.8,55.3,52.9,51.0,95,81,67,29.93,29.87,6,3,13,0.39
2013-10-8,60.3,50.9,45.0,54.7,48.8,43.4,95,93,83,30.10,30.07,1,0,2,0.00
2013-10-9,76.1,64.2,49.7,62.4,56.5,48.0,95,77,61,30.17,30.08,3,0,4,0.00
2013-10-10,71.6,65.1,50.6,59.0,56.7,49.2,96,75,62,30.13,30.02,5,2,13,0.00
2013-10-11,74.2,65.8,49.7,59.2,56.3,48.3,95,73,54,30.07,29.98,4,2,8,0.00
2013-10-12,74.5,66.3,49.5,61.0,57.8,48.1,96,75,59,30.08,30.04,3,1,7,0.00
2013-10-13,74.0,68.0,54.9,62.4,60.5,53.5,96,78,65,30.20,30.13,3,1,6,0.00
2013-10-14,74.4,67.6,55.9,62.4,60.5,54.5,96,79,63,30.20,30.08,3,0,4,0.00
2013-10-15,67.7,64.6,56.6,60.3,58.1,55.2,95,80,73,30.11,30.01,2,1,6,0.00
2013-10-16,67.6,64.0,56.7,61.0,59.3,55.3,95,85,77,30.05,29.94,0,0,3,0.00
2013-10-17,63.0,59.0,54.8,61.2,57.1,52.5,96,93,91,29.94,29.87,4,2,5,0.14
2013-10-18,67.8,54.3,46.9,54.0,49.6,45.3,95,85,57,30.03,29.92,2,0,5,0.00
2013-10-19,60.9,59.6,56.8,53.1,52.3,51.3,86,77,71,29.93,29.91,2,0,3,0.00
2013-10-20,66.5,54.0,41.1,46.8,41.5,37.7,93,66,38,30.08,30.00,1,0,3,0.00
2013-10-21,69.1,57.3,34.3,52.8,48.1,32.5,95,73,51,30.15,30.02,1,0,2,0.00
2013-10-22,66.9,60.3,50.0,55.3,51.7,48.3,95,74,58,29.99,29.83,3,0,3,0.00
2013-10-23,51.5,48.0,42.4,42.5,37.2,33.4,79,66,57,30.04,29.88,7,4,10,0.00
2013-10-24,57.4,48.5,35.6,41.9,39.1,33.8,93,71,52,30.23,30.13,4,1,7,0.00
2013-10-25,49.0,38.2,29.7,37.4,27.9,23.9,86,68,40,30.40,30.23,6,2,8,0.00
2013-10-26,58.6,38.4,25.2,36.3,29.1,22.6,92,73,41,30.37,30.18,2,0,5,0.00
2013-10-27,60.4,56.1,46.7,51.1,48.2,42.4,85,75,66,30.15,30.09,1,0,4,0.00
2013-10-28,59.7,57.0,51.1,55.3,53.1,49.7,96,87,80,30.25,30.19,0,0,1,0.10
2013-10-29,69.5,59.9,49.9,59.0,54.7,48.5,96,84,66,30.33,30.23,1,0,4,0.00
2013-10-30,75.1,66.2,50.3,60.0,57.1,48.9,96,74,57,30.29,30.13,1,0,5,0.00
2013-10-31,69.1,66.3,58.3,61.3,59.6,55.4,93,79,74,30.03,29.84,3,1,6,0.03
2013-11-1,73.5,64.2,57.4,57.6,52.9,48.8,95,69,44,29.78,29.66,1,0,3,0.43
2013-11-2,61.0,55.5,43.4,48.0,42.8,37.6,94,64,49,29.96,29.86,5,2,6,0.00
2013-11-3,59.0,47.0,35.8,40.6,35.1,-99.9,90,68,45,30.32,28.30,4,-18,5,0.00
2013-11-4,59.1,46.4,32.2,41.0,35.9,30.0,94,69,47,30.44,30.32,6,1,11,0.00
2013-11-5,67.3,49.0,37.5,46.0,39.7,34.0,90,72,46,30.45,30.32,3,0,0,0.00
2013-11-6,70.4,59.4,48.3,57.0,52.0,39.0,89,77,63,30.35,30.07,7,1,0,0.00
2013-11-7,59.0,50.5,39.9,56.0,45.1,31.0,95,82,62,30.22,29.99,12,3,12,0.10
2013-11-8,53.3,42.0,30.1,31.0,27.1,22.0,85,58,31,30.36,30.22,8,2,0,0.01
2013-11-9,55.6,40.5,27.4,37.0,31.2,25.0,92,72,44,30.36,30.25,2,0,0,0.00
2013-11-10,63.9,48.6,36.3,43.0,36.9,30.0,90,67,38,30.32,30.23,9,1,3,0.00
2013-11-11,67.2,51.8,28.8,36.9,33.0,26.0,90,52,29,30.32,30.17,7,0,7,0.00
2013-11-12,50.6,37.2,27.5,40.0,28.5,16.0,89,71,56,30.48,30.15,24,7,24,0.00
2013-11-13,44.7,33.6,20.6,19.9,17.7,14.0,79,54,35,30.63,30.48,10,2,10,0.00
2013-11-14,60.7,41.8,18.9,27.8,21.0,16.0,89,50,24,30.54,30.34,7,0,7,0.00
2013-11-15,49.2,40.4,28.6,47.0,36.8,21.0,95,87,74,30.35,30.16,3,0,0,0.16
2013-11-16,62.1,54.9,48.2,57.0,52.2,47.0,96,91,81,30.22,30.11,5,1,0,0.04
2013-11-17,64.4,61.2,59.0,63.0,58.0,54.0,96,89,82,30.11,29.87,6,1,0,0.65
2013-11-18,64.4,56.6,46.0,63.0,43.3,32.0,96,64,43,30.06,29.86,9,4,5,0.00
2013-11-19,53.6,43.5,34.8,32.0,29.5,27.0,81,59,41,30.18,30.05,18,3,0,0.00
2013-11-20,55.3,42.8,30.6,35.0,30.3,27.0,87,64,42,30.34,30.18,11,1,0,0.00
2013-11-21,59.0,52.4,44.2,53.0,46.1,31.0,91,79,61,30.37,30.27,9,1,0,0.00
2013-11-22,60.2,56.9,55.1,58.0,55.1,53.0,95,93,90,30.31,30.15,4,0,0,0.07
2013-11-23,56.1,44.1,33.3,55.0,39.9,21.0,95,85,59,30.30,30.12,12,4,0,0.00
2013-11-24,36.6,28.4,21.8,21.0,14.6,11.0,72,58,38,30.51,30.30,16,4,0,0.00
2013-11-25,44.2,34.5,22.0,35.0,19.9,10.0,92,59,26,30.50,30.21,6,1,0,0.11
2013-11-26,47.4,42.2,37.3,46.0,40.8,36.0,95,94,92,30.21,29.70,9,1,0,3.29
2013-11-27,37.0,29.0,23.5,36.0,24.5,16.0,94,83,69,30.28,29.73,14,7,13,0.01
2013-11-28,47.0,29.1,16.8,27.0,20.8,14.0,89,74,43,30.51,30.29,5,0,0,0.01
2013-11-29,53.1,33.4,20.7,32.0,25.4,18.0,92,75,44,30.60,30.48,3,0,0,0.00
2013-11-30,55.2,36.4,26.1,31.0,26.7,23.0,91,71,40,30.56,30.34,3,0,0,0.00
2013-12-1,54.6,39.7,28.4,40.0,32.9,25.0,90,78,56,30.35,30.04,5,0,0,0.00
2013-12-2,47.4,43.9,40.6,46.0,41.4,36.0,95,91,77,30.03,29.82,3,0,0,0.18
2013-12-3,53.2,49.7,46.3,52.0,48.3,45.0,96,95,92,29.89,29.82,4,0,0,0.00
2013-12-4,64.6,56.5,49.6,60.0,54.5,48.0,96,93,83,30.00,29.89,6,0,0,0.01
2013-12-5,66.1,63.2,55.4,65.0,62.1,54.0,96,96,95,30.03,29.93,5,0,0,0.79
2013-12-6,70.0,65.0,47.7,65.3,62.3,46.0,96,91,84,30.03,29.86,18,2,18,0.85
2013-12-7,47.2,37.8,35.7,46.0,36.1,34.0,95,93,91,30.33,30.02,10,3,0,0.00
2013-12-8,47.4,43.7,37.8,46.0,42.3,37.0,96,94,91,30.30,30.09,6,1,4,1.36
2013-12-9,52.3,49.3,45.3,51.0,48.0,44.0,96,95,93,30.13,29.98,4,0,0,0.35
2013-12-10,47.0,36.9,26.0,46.0,34.0,24.0,95,89,72,30.35,29.94,15,2,11,0.26
2013-12-11,51.4,32.7,20.2,33.0,24.1,18.0,93,74,33,30.50,30.34,5,0,0,0.01
2013-12-12,38.0,30.9,25.2,25.0,20.4,14.0,85,67,38,30.50,30.41,11,2,0,0.00
2013-12-13,50.0,33.3,19.4,30.0,22.8,16.0,89,68,37,30.44,30.19,3,0,0,0.00
2013-12-14,49.7,46.9,38.3,48.0,42.6,26.0,95,86,50,30.21,29.80,9,1,6,0.96
2013-12-15,47.1,33.7,29.0,46.0,30.6,26.0,95,88,83,30.23,29.82,14,4,0,0.00
2013-12-16,53.4,34.3,23.8,36.0,28.3,22.0,94,80,46,30.30,30.19,3,0,0,0.00
2013-12-17,58.1,42.2,27.7,41.0,32.6,25.0,92,71,50,30.25,30.07,17,2,0,0.00
2013-12-18,47.4,35.8,27.5,26.0,20.8,15.0,77,57,29,30.34,30.21,7,1,0,0.00
2013-12-19,59.7,39.6,24.0,31.0,24.7,21.0,89,61,25,30.37,30.21,4,0,0,0.00
2013-12-20,61.7,49.0,35.6,52.0,39.5,28.0,86,71,45,30.22,30.09,12,0,0,0.00
2013-12-21,67.6,61.5,55.4,63.0,58.5,52.0,95,89,84,30.09,29.85,10,2,3,0.13
2013-12-22,68.1,57.6,52.6,63.0,55.5,51.0,96,93,82,30.06,29.80,11,1,4,2.46
2013-12-23,52.4,42.5,32.2,51.0,40.6,29.0,96,92,87,30.28,30.00,11,3,10,0.10
2013-12-24,32.6,29.0,22.1,29.0,21.7,16.0,87,75,58,30.45,30.29,10,3,0,0.00
2013-12-25,45.7,28.2,16.5,24.0,19.9,14.0,89,74,42,30.51,30.37,5,0,0,0.00
2013-12-26,47.6,32.0,21.4,30.0,24.3,19.0,91,76,46,30.43,30.32,4,0,0,0.00
2013-12-27,52.4,33.0,21.4,31.0,25.0,19.0,91,75,41,30.51,30.38,2,0,0,0.00
2013-12-28,39.3,33.1,25.7,38.0,30.8,23.0,94,91,82,30.45,29.99,2,0,0,1.23
2013-12-29,46.8,42.4,34.4,44.0,40.4,33.0,95,92,86,30.06,29.87,4,0,0,0.19
2013-12-30,40.6,37.4,34.2,38.0,35.1,32.0,95,91,85,30.23,30.04,5,1,2,0.00
2013-12-31,39.5,32.4,27.4,32.0,26.3,21.0,93,79,50,30.44,30.21,9,1,0,0.00
2014-1-1,47.8,34.2,24.9,31.0,27.2,23.0,92,78,50,30.39,30.14,0,0,0,0.00
2014-1-2,44.8,36.2,19.4,43.0,32.9,14.0,94,88,75,30.14,29.77,12,3,0,0.24